Wind_Speed
36 36 36 37 37 38 40 41 42 42 42 44 45 46 46 47 47 48 49 51 52 52 52 53 53 53 53 54 54 55 55 54 53 53 52 52 52 51
37 38 38 38 39 40 41 42 43 43 43 44 45 46 46 47 48 49 51 52 52 51 52 53 52 53 53 54 55 55 54 53 52 53 52 52 52 51
38 38 39 39 40 41 42 43 43 43 43 44 45 46 47 47 48 49 51 51 51 51 52 51 51 52 53 55 55 55 53 53 53 53 52 52 51 50
39 39 40 41 41 42 42 42 43 44 44 44 45 46 47 48 49 50 51 51 51 51 50 50 51 52 54 55 55 54 53 53 54 54 53 53 51 49
40 40 40 41 41 42 42 43 44 44 44 44 45 46 47 48 49 50 50 51 50 50 50 50 51 53 54 55 55 54 54 54 55 54 54 52 50 48
40 40 40 41 41 42 42 43 44 44 44 44 45 46 47 47 48 48 49 50 49 50 50 50 52 53 55 55 55 55 55 55 55 55 54 52 49 47
40 40 41 41 41 42 43 44 44 44 45 45 46 46 46 46 47 47 48 49 48 49 50 51 52 54 55 55 55 55 55 56 55 54 53 51 48 46
41 41 41 41 42 43 44 44 45 45 45 45 46 46 46 46 46 47 48 48 48 48 50 51 53 54 55 55 55 55 56 56 55 54 52 49 47 45
41 41 40 41 42 43 44 44 44 45 45 45 45 45 44 45 46 47 47 47 47 48 50 51 53 54 55 56 56 56 56 56 55 53 50 48 45 43
41 41 41 42 43 43 43 44 43 44 44 44 43 44 44 44 45 46 46 47 47 49 50 51 52 54 55 56 56 56 56 55 53 51 48 45 43 41
42 42 42 42 42 43 43 43 43 43 43 43 43 43 43 43 45 45 46 46 47 48 49 51 52 54 55 56 56 56 55 54 51 48 46 44 42 40
42 42 41 42 42 43 43 43 43 42 42 42 42 42 42 43 44 45 45 46 47 48 49 51 52 53 55 55 55 55 54 52 49 47 45 43 41 40
42 41 41 42 42 42 42 42 42 42 41 41 41 41 41 42 44 45 45 45 47 48 49 50 52 54 55 54 54 54 53 50 48 46 44 42 40 38
41 41 42 42 42 42 42 42 41 41 41 40 40 40 41 42 43 44 45 45 47 48 49 50 52 53 54 53 53 54 52 49 46 44 42 40 39 37
41 41 42 42 42 42 42 41 40 40 40 39 39 40 41 42 43 44 44 46 47 48 49 51 52 52 53 53 53 53 50 47 44 42 40 39 38 36
42 42 42 41 41 41 39 39 38 38 38 38 38 40 41 41 42 43 44 46 47 49 49 50 50 52 53 52 53 52 49 46 43 41 40 39 38 35
41 41 40 40 39 38 37 37 37 37 37 37 38 39 40 41 42 43 44 45 47 48 48 48 49 51 52 52 51 50 48 45 42 40 39 38 36 34
41 40 39 38 37 36 37 36 36 36 37 37 38 39 39 40 41 42 44 45 46 47 47 47 48 50 51 51 50 49 46 44 42 39 38 36 35 33
38 37 37 36 35 35 36 36 36 36 36 36 37 38 38 39 41 43 44 45 46 45 45 46 48 49 50 50 49 47 45 42 41 39 37 35 33 31
36 36 35 34 34 34 34 34 35 35 35 36 37 37 38 39 41 43 44 44 44 44 45 46 47 49 50 50 48 45 43 41 39 38 36 33 32 30
35 34 34 33 34 34 33 33 34 34 35 36 36 37 38 40 42 43 44 43 43 44 44 46 47 48 49 49 47 44 42 40 38 35 33 31 29 27
35 34 33 32 33 33 32 32 33 33 34 35 35 37 38 40 41 42 42 42 42 43 45 46 48 48 48 47 45 43 41 39 37 33 30 28 26 24
34 33 32 31 32 32 31 32 32 32 33 34 35 36 38 39 40 41 41 42 42 44 46 46 47 47 47 45 44 41 39 37 34 32 28 25 23 23
Wind_Direction
274 277 281 285 289 293 295 298 300 301 303 304 304 306 308 309 310 311 312 314 315 315 315 316 316 317 317 318 318 318 317 316 315 314 313 312 311 310
274 277 281 285 289 292 294 297 299 300 302 303 305 306 307 308 310 311 312 314 315 315 315 316 317 317 318 319 319 318 318 317 317 316 315 314 313 312
274 277 281 285 288 291 293 296 297 299 301 303 304 306 307 308 309 311 313 314 315 315 316 317 317 318 319 320 320 319 319 318 318 317 315 314 313 312
274 277 281 285 288 291 293 294 296 298 301 303 304 306 307 308 309 311 313 314 315 316 317 318 318 319 320 321 321 320 319 319 319 318 316 315 314 312
274 278 281 284 287 290 292 294 296 298 301 303 304 305 306 307 309 312 314 316 316 317 318 318 319 320 321 321 321 321 321 320 319 318 316 315 314 313
274 278 281 283 287 289 291 293 295 298 300 302 304 305 306 307 310 312 314 316 317 317 318 319 320 321 322 322 322 322 321 321 320 319 318 316 314 313
275 278 280 283 286 289 291 293 294 296 299 302 303 305 306 308 310 312 314 316 317 317 319 319 320 321 322 322 322 322 322 322 321 320 319 317 315 313
274 277 279 282 286 288 290 292 294 296 299 301 303 304 306 308 311 313 315 316 317 318 318 320 321 321 322 323 323 323 323 322 322 321 320 318 316 314
274 277 279 283 286 289 291 292 294 297 299 301 303 306 307 309 311 314 315 316 317 318 319 320 321 322 323 323 324 324 324 323 323 322 321 319 318 317
273 276 280 282 285 288 290 292 294 297 299 300 303 305 306 309 311 314 316 316 317 318 319 321 322 323 324 324 324 325 325 325 324 324 323 322 321 320
272 275 279 282 285 287 289 292 294 296 297 300 303 305 307 309 312 314 315 316 317 319 320 321 323 324 324 325 325 326 326 326 326 326 325 323 322 321
271 275 278 282 284 286 288 290 293 295 297 301 303 305 307 310 313 314 315 316 317 318 320 321 323 324 325 326 326 327 327 327 326 325 325 324 322 322
271 274 278 281 283 284 286 288 291 294 297 300 302 305 307 311 313 314 315 315 317 319 320 322 323 325 327 327 327 328 328 327 326 326 326 325 324 323
270 274 277 279 281 282 284 287 290 293 297 300 303 306 308 311 314 315 315 315 317 319 320 322 324 326 328 328 328 329 328 328 327 326 326 327 327 326
269 272 275 277 279 281 284 287 290 294 297 299 303 306 309 312 314 315 316 316 318 319 320 322 324 326 328 328 329 329 329 328 327 327 327 328 328 328
268 271 274 276 278 281 284 287 290 294 297 300 303 306 309 312 315 316 316 316 318 319 321 322 324 327 328 329 330 330 330 329 328 328 327 328 328 328
268 271 273 275 277 279 283 286 290 293 296 300 304 307 309 312 315 317 317 317 319 320 321 323 325 327 329 330 331 331 330 329 329 328 327 328 328 328
267 269 271 273 275 278 282 286 290 293 296 300 303 306 309 312 314 316 317 318 319 321 322 323 325 328 329 330 331 331 330 330 329 329 328 328 328 328
268 270 271 273 275 279 282 286 289 293 296 299 303 305 308 311 314 316 317 318 319 321 322 324 325 327 329 330 331 331 330 330 329 328 328 328 328 328
267 269 271 273 276 278 282 286 289 292 296 299 302 305 308 311 314 315 317 317 319 321 322 323 325 327 329 331 331 330 330 330 329 328 328 329 330 330
265 267 269 273 276 278 282 286 289 292 295 299 301 305 308 311 313 315 317 318 319 321 322 323 325 327 329 331 331 330 330 330 330 329 328 329 331 333
262 265 268 272 275 278 282 285 288 292 295 298 301 305 308 311 313 316 317 318 319 320 321 322 324 326 329 330 331 330 329 329 330 330 329 330 332 335
260 263 266 270 273 277 282 285 288 291 295 298 301 305 309 311 313 316 318 318 318 320 321 322 324 326 328 330 330 329 329 329 329 330 330 331 333 336
Height
5755 5754 5753 5751 5748 5746 5742 5739 5735 5731 5727 5721 5716 5710 5704 5699 5693 5686 5680 5673 5665 5657 5649 5640 5632 5623 5615 5606 5597 5588 5579 5570 5561 5552 5544 5535 5527 5519
5747 5746 5745 5743 5740 5737 5734 5730 5726 5722 5718 5713 5707 5701 5696 5690 5683 5677 5670 5663 5655 5647 5639 5630 5621 5613 5604 5596 5587 5577 5568 5559 5550 5541 5532 5523 5515 5507
5739 5738 5736 5734 5732 5729 5725 5722 5718 5713 5709 5704 5699 5693 5687 5681 5674 5667 5660 5653 5645 5637 5629 5620 5612 5603 5595 5586 5576 5567 5557 5548 5539 5530 5521 5512 5503 5495
5730 5729 5727 5725 5723 5720 5717 5713 5709 5704 5700 5696 5690 5684 5678 5671 5665 5658 5650 5643 5635 5627 5619 5611 5602 5594 5585 5576 5566 5556 5547 5537 5528 5519 5510 5501 5492 5483
5721 5720 5718 5716 5714 5711 5708 5704 5700 5696 5691 5687 5681 5675 5669 5662 5655 5648 5640 5633 5625 5617 5609 5601 5593 5585 5575 5566 5556 5546 5537 5527 5518 5508 5498 5488 5480 5471
5711 5710 5709 5707 5705 5702 5698 5695 5691 5687 5682 5677 5672 5666 5660 5653 5646 5639 5631 5623 5615 5607 5600 5592 5584 5575 5566 5556 5547 5536 5526 5516 5506 5496 5486 5477 5468 5460
5702 5701 5699 5697 5695 5692 5689 5685 5682 5677 5673 5668 5663 5657 5650 5644 5637 5630 5623 5615 5607 5598 5590 5583 5575 5566 5556 5546 5536 5526 5516 5505 5495 5485 5475 5466 5457 5449
5692 5691 5690 5688 5686 5683 5679 5676 5672 5668 5664 5659 5654 5648 5641 5635 5628 5621 5614 5607 5600 5592 5582 5574 5565 5556 5546 5537 5526 5516 5505 5495 5484 5474 5464 5455 5447 5439
5682 5681 5680 5678 5676 5673 5670 5666 5663 5658 5654 5650 5644 5639 5633 5626 5620 5613 5604 5596 5590 5582 5573 5565 5555 5546 5537 5527 5516 5506 5495 5485 5474 5464 5454 5445 5437 5429
5672 5672 5671 5669 5666 5663 5660 5657 5653 5649 5645 5640 5636 5630 5624 5617 5611 5604 5596 5588 5581 5573 5564 5556 5547 5537 5527 5517 5507 5496 5485 5474 5464 5454 5445 5436 5428 5421
5662 5662 5660 5659 5656 5653 5650 5647 5643 5639 5635 5631 5626 5620 5614 5608 5602 5595 5587 5580 5573 5565 5556 5548 5539 5529 5518 5507 5497 5486 5475 5465 5455 5446 5437 5428 5421 5414
5652 5651 5650 5648 5646 5643 5640 5637 5634 5630 5626 5622 5617 5612 5606 5600 5593 5586 5579 5571 5564 5557 5548 5539 5530 5521 5511 5500 5488 5478 5467 5456 5447 5438 5430 5421 5414 5406
5641 5641 5640 5638 5635 5633 5630 5627 5624 5621 5617 5613 5608 5603 5597 5591 5584 5577 5570 5563 5555 5548 5540 5531 5521 5511 5501 5492 5481 5469 5459 5449 5439 5431 5422 5414 5407 5399
5630 5630 5629 5627 5625 5623 5620 5618 5615 5611 5608 5603 5599 5594 5588 5582 5575 5568 5561 5554 5547 5539 5530 5522 5513 5503 5493 5483 5473 5462 5451 5441 5432 5424 5416 5408 5400 5393
5619 5619 5618 5616 5614 5612 5610 5608 5605 5602 5599 5595 5590 5585 5579 5573 5567 5560 5552 5545 5538 5530 5522 5513 5504 5495 5485 5475 5465 5455 5444 5434 5425 5417 5409 5402 5395 5388
5608 5608 5607 5605 5604 5603 5601 5599 5596 5593 5590 5585 5581 5576 5570 5564 5558 5551 5544 5537 5529 5521 5513 5504 5496 5487 5477 5467 5457 5447 5437 5428 5420 5411 5403 5396 5389 5382
5597 5597 5596 5595 5595 5593 5592 5589 5587 5584 5581 5577 5572 5567 5562 5556 5549 5542 5535 5528 5521 5513 5504 5496 5487 5478 5469 5460 5450 5440 5430 5421 5413 5405 5398 5390 5383 5376
5586 5586 5586 5585 5585 5584 5582 5580 5578 5575 5571 5567 5563 5558 5553 5547 5541 5534 5527 5520 5513 5505 5497 5489 5480 5471 5461 5452 5443 5433 5424 5415 5407 5400 5392 5385 5378 5372
5575 5576 5576 5576 5575 5574 5572 5571 5569 5566 5562 5558 5554 5550 5544 5539 5532 5526 5519 5512 5504 5497 5489 5482 5473 5465 5456 5446 5436 5427 5418 5410 5401 5394 5387 5380 5374 5367
5565 5566 5566 5566 5565 5564 5563 5561 5559 5556 5553 5550 5546 5541 5536 5530 5524 5517 5511 5504 5497 5489 5482 5474 5466 5458 5449 5440 5430 5421 5412 5404 5396 5389 5381 5375 5369 5363
5555 5556 5556 5556 5556 5555 5554 5552 5550 5547 5544 5541 5537 5532 5527 5522 5516 5509 5502 5495 5489 5482 5474 5467 5459 5450 5441 5432 5423 5415 5406 5399 5391 5384 5377 5371 5365 5359
5545 5546 5547 5547 5546 5546 5545 5543 5541 5538 5536 5532 5528 5524 5519 5513 5507 5501 5494 5488 5481 5474 5467 5459 5451 5443 5434 5426 5417 5408 5400 5393 5386 5379 5373 5367 5361 5356
5536 5536 5537 5537 5537 5537 5536 5534 5532 5530 5527 5523 5519 5515 5510 5504 5499 5492 5486 5479 5473 5466 5459 5451 5443 5435 5427 5419 5410 5402 5395 5387 5381 5374 5369 5363 5358 5353